Theta_e
288 289 289 289 289 290 290 290 288 287 287 286 286 285 284 284 284 284 284 284 284 283 283 282 282 282 282 281 281 280 280 279 279 279 279 279 279 279 278 278 278 277 277 277 277 277 276 276 276 276 275 275 275 275 275 274 274 274 274 275 275 274
288 288 288 288 288 288 289 288 287 286 286 285 285 285 284 284 283 283 283 283 284 283 282 282 282 282 281 281 280 280 280 280 279 279 279 279 279 279 278 278 277 277 277 276 277 276 276 276 275 275 275 275 275 274 274 274 274 274 274 274 274 274
287 287 287 288 287 287 287 287 286 286 285 285 285 284 283 283 283 283 283 284 283 283 282 282 282 281 281 280 280 280 280 280 280 280 279 279 279 278 278 277 277 277 276 276 276 276 276 275 275 275 274 274 274 273 273 273 273 273 273 273 273 273
286 286 286 286 286 286 286 285 285 285 284 285 284 284 284 284 283 284 284 284 284 283 282 282 281 281 281 280 280 280 280 280 280 280 279 279 278 278 278 277 277 276 276 276 276 275 275 275 274 274 274 274 273 273 273 273 273 273 272 272 272 272
286 286 286 286 286 286 285 284 285 285 284 284 284 284 284 284 284 284 284 284 283 283 282 282 281 281 280 280 280 280 280 280 279 279 279 278 278 277 277 277 276 276 277 276 275 275 274 274 274 274 273 273 273 273 273 273 273 272 272 271 271 272
285 285 285 285 285 286 285 284 284 285 285 285 284 284 284 284 284 284 283 283 283 283 282 282 281 281 281 280 280 280 280 280 279 279 279 278 277 277 277 277 277 277 277 276 275 274 274 274 275 274 273 273 273 273 274 273 272 272 271 271 271 271
284 284 285 285 285 286 285 285 284 284 284 284 284 284 284 284 284 283 283 283 282 282 282 282 281 281 281 280 280 280 280 280 279 279 278 277 277 277 277 277 277 277 276 276 275 274 274 274 274 274 273 273 273 273 273 272 271 271 271 271 271 273
284 284 284 285 285 286 285 285 284 284 284 284 285 284 284 284 283 283 283 283 283 282 282 282 281 281 281 280 280 280 280 280 279 279 278 278 277 277 277 277 277 277 276 275 275 275 275 274 274 274 274 273 272 271 272 272 272 271 271 271 271 271
284 284 284 285 285 285 285 285 284 284 284 284 284 284 284 283 283 283 283 283 282 282 282 282 282 282 281 281 280 280 280 280 279 279 278 278 278 277 277 277 276 276 276 275 274 274 274 274 274 274 273 272 272 272 273 272 271 271 271 270 270 270
284 284 284 284 284 285 285 285 284 284 283 283 283 283 284 284 283 283 283 283 282 282 282 282 282 281 281 281 280 280 280 280 279 279 278 278 277 277 277 276 276 276 276 275 274 274 274 274 274 273 272 272 273 273 273 272 271 271 270 270 270 270
284 284 284 284 283 283 284 284 284 283 283 283 283 283 283 283 283 283 283 282 282 282 282 282 281 281 281 280 280 280 279 279 279 278 278 278 277 277 277 277 276 275 275 275 275 274 274 274 273 273 272 272 273 273 272 272 271 271 271 270 270 270
284 284 284 283 283 283 283 284 284 284 283 283 283 283 283 283 283 282 282 282 282 282 282 281 281 281 280 281 280 280 279 279 279 278 277 277 277 277 276 276 276 275 275 274 274 274 273 273 273 275 277 276 273 272 272 272 271 271 271 270 270 270
284 284 284 284 283 283 284 284 284 284 283 283 283 283 283 283 283 283 283 282 282 282 281 281 281 281 281 281 281 280 279 279 278 277 277 277 276 276 275 275 275 275 275 274 274 273 273 273 273 277 279 280 279 274 272 272 271 270 270 270 270 269
284 284 284 284 284 284 284 284 284 283 283 284 283 283 283 283 283 282 282 282 283 283 282 282 282 282 281 281 280 280 279 278 278 277 277 276 275 275 275 275 275 274 274 274 274 273 273 273 276 279 280 281 281 278 272 271 270 270 270 270 270 269
285 285 285 284 284 284 284 284 283 283 284 283 283 283 282 282 282 282 283 283 283 283 282 282 282 282 281 281 280 279 278 278 277 277 276 276 275 275 274 275 275 274 274 273 273 273 273 273 277 279 281 282 282 281 275 270 270 270 269 270 270 269
286 286 285 285 285 285 284 284 284 284 284 283 282 282 282 282 282 283 283 283 283 283 282 282 282 281 281 280 280 279 278 277 277 277 277 276 275 275 275 274 274 274 273 273 273 273 273 272 276 280 281 282 283 283 279 269 270 270 269 270 270 270
286 286 285 285 285 284 284 283 284 284 283 283 282 282 282 283 283 283 283 283 283 283 282 282 282 281 281 280 279 278 278 277 277 277 276 276 276 275 274 274 274 274 274 273 273 273 272 272 276 280 282 282 283 283 282 272 272 271 271 271 271 271
287 287 287 287 286 285 285 284 285 284 283 284 283 283 283 283 283 283 283 283 283 282 282 282 281 281 281 280 279 278 278 277 277 276 276 276 276 275 275 275 275 274 274 273 273 272 272 272 277 279 281 283 283 284 280 274 273 272 272 271 272 271
288 288 287 286 286 286 285 285 285 284 284 283 283 283 283 283 283 283 283 283 283 282 282 282 281 281 280 279 278 277 277 277 277 277 276 275 276 275 275 274 274 274 274 273 272 272 272 272 276 279 281 282 283 283 278 273 273 273 272 272 272 272
288 287 288 286 286 286 286 285 285 284 283 283 283 283 282 282 282 283 283 283 283 282 282 282 281 280 280 279 278 277 278 278 277 277 276 276 275 275 275 275 274 274 274 273 272 272 272 272 274 279 281 282 283 282 277 274 273 273 273 272 272 272
288 287 287 286 286 286 285 285 285 284 283 283 283 283 282 282 283 283 283 283 283 282 282 281 281 280 279 279 278 278 278 278 277 277 277 276 276 276 276 275 275 274 273 272 272 273 272 272 273 277 280 282 282 282 276 273 272 272 272 272 271 271
287 286 286 286 286 285 285 285 285 284 283 283 283 282 282 283 283 283 283 283 282 282 281 281 281 280 280 279 279 278 279 279 278 277 276 276 276 276 276 274 274 273 273 271 270 270 271 270 269 272 279 281 282 283 277 272 272 272 272 272 271 269
287 287 286 286 285 285 285 285 284 284 283 282 282 282 283 283 283 283 282 282 281 281 281 281 281 280 280 280 280 280 278 278 278 276 275 274 273 273 272 272 272 272 272 271 269 269 269 270 269 270 276 279 282 283 281 272 273 273 272 271 270 269
283 283 283 283 284 284 284 285 284 283 282 281 281 282 282 282 282 282 281 281 281 281 280 280 280 281 281 280 279 278 276 275 275 274 273 271 271 271 272 271 270 270 270 270 268 268 268 268 270 267 272 277 280 282 283 276 273 274 271 270 269 268
283 282 281 281 282 283 284 284 283 282 281 281 282 281 280 280 280 280 280 280 280 280 280 280 279 279 279 278 277 277 276 274 273 272 271 271 270 271 271 270 269 268 269 269 268 267 266 266 266 271 268 273 277 280 282 282 278 278 274 271 270 269
279 278 276 277 278 280 282 282 281 280 279 280 278 278 278 279 278 279 279 279 279 278 278 278 277 278 277 277 276 276 275 273 272 271 271 271 271 270 270 270 269 268 268 269 269 268 266 265 264 268 272 271 275 277 280 282 282 281 276 274 271 271
277 276 274 274 274 275 278 279 279 278 278 277 277 277 277 277 276 277 277 277 277 277 277 276 276 276 276 276 275 275 275 272 271 271 270 270 270 270 270 271 270 269 269 268 268 269 268 266 264 263 267 273 274 276 277 279 281 282 282 277 274 273
275 276 275 272 272 273 274 275 278 278 276 274 275 276 276 275 276 276 276 276 276 276 275 275 274 274 274 274 275 276 275 274 272 272 270 269 269 269 270 270 268 267 267 267 268 269 270 266 264 264 263 267 270 272 275 277 278 279 280 280 278 277
275 274 275 275 271 270 271 271 273 273 273 274 274 274 275 275 276 276 276 276 275 274 274 275 274 273 272 272 272 273 273 273 271 271 270 268 268 268 268 268 268 268 267 267 268 269 268 266 262 263 261 262 263 264 266 269 271 276 278 277 277 278
276 273 272 275 272 269 269 270 270 268 270 271 273 273 274 275 276 276 275 275 274 274 273 274 271 272 272 272 272 272 271 270 271 271 271 269 269 269 268 268 268 268 268 268 269 267 263 266 263 263 262 262 262 263 264 265 267 268 271 273 275 275
274 272 272 272 270 269 269 269 268 265 270 271 271 274 275 275 273 271 271 270 271 272 271 273 272 272 272 271 270 271 272 272 270 271 271 269 267 270 270 269 269 269 269 267 267 266 266 266 266 265 268 265 268 265 264 264 265 267 269 273 276 274
272 272 271 271 269 270 270 268 268 266 267 267 269 273 275 273 272 270 269 270 270 269 269 270 270 268 269 269 269 268 266 269 273 271 268 267 272 275 276 275 269 265 265 267 267 267 268 269 268 272 274 274 274 275 275 273 272 272 270 272 276 276
270 270 270 270 268 269 269 269 267 267 266 268 268 271 272 271 271 270 269 269 270 269 268 267 267 267 267 266 266 266 266 265 266 274 276 275 273 274 275 277 277 277 275 269 266 267 274 275 276 276 275 276 276 277 277 277 277 276 275 275 272 272
269 270 271 269 267 268 267 268 266 267 266 265 268 269 270 271 272 271 270 269 265 268 266 265 265 264 265 263 263 265 264 264 265 266 272 275 276 276 276 276 276 277 277 277 274 268 264 271 275 276 276 277 277 277 277 277 278 277 277 276 276 270
270 269 268 266 266 266 266 266 265 264 265 264 264 266 268 268 270 269 266 266 266 266 266 265 265 265 265 263 263 261 262 264 264 266 266 265 274 276 277 277 277 277 277 278 278 278 275 272 273 275 276 276 277 277 277 277 278 278 278 277 274 271
268 268 267 266 266 266 265 265 261 260 260 262 262 264 265 265 265 265 265 265 265 265 264 265 265 264 263 263 262 262 262 262 263 264 263 261 260 265 270 274 277 277 277 278 278 278 278 278 277 276 276 276 276 277 277 277 276 278 279 277 273 273
268 267 266 266 265 265 264 261 258 258 257 261 261 263 263 262 264 262 264 264 264 263 264 263 263 263 261 262 262 262 262 263 262 263 262 262 263 264 265 261 265 272 276 275 276 277 278 278 278 278 277 276 277 277 277 277 274 273 274 275 275 273
265 264 263 263 264 264 263 259 257 257 257 258 260 262 262 262 262 262 263 262 263 262 262 262 263 263 263 263 262 262 261 261 260 262 261 260 260 261 260 260 261 263 268 274 275 276 276 277 277 277 278 277 277 277 277 273 272 272 272 272 273 272
Wind_Speed
12 12 12 11 10 11 11 11 11 9 8 10 12 14 13 12 10 10 9 10 9 8 9 9 8 7 7 6 7 7 9 9 8 8 7 7 6 7 7 7 6 6 5 5 7 7 8 7 7 7 6 6 7 5 6 4 5 6 5 3 5 3
11 12 13 13 12 11 10 10 9 11 10 10 9 9 10 10 11 10 11 10 9 9 7 7 7 7 8 8 9 9 9 9 10 9 8 9 7 7 7 7 7 7 7 5 7 8 7 8 6 7 7 6 6 6 6 5 5 6 5 3 3 3
10 10 9 10 8 8 8 10 12 10 9 10 11 13 11 12 12 11 11 10 10 10 11 10 9 9 8 8 8 9 9 9 9 9 8 8 8 9 9 8 8 7 6 7 7 8 8 8 7 6 6 7 7 6 6 5 6 6 4 4 3 2
9 8 7 7 9 9 10 9 9 10 11 10 10 10 12 12 11 12 12 11 11 12 11 10 8 9 8 10 9 9 9 9 10 9 8 9 8 9 9 9 7 6 7 7 7 7 7 7 7 6 6 7 7 6 5 6 6 6 5 4 3 3
10 11 12 12 13 11 11 10 12 12 11 10 11 12 12 12 12 11 11 11 12 13 11 10 10 10 11 11 10 10 10 9 9 8 10 9 8 7 7 8 8 8 7 7 7 7 6 6 6 5 5 6 7 7 6 6 6 6 6 5 5 4
8 9 11 12 12 12 13 11 10 11 12 12 11 13 13 11 10 11 11 10 11 11 11 11 10 11 12 12 11 12 10 9 8 8 8 8 7 8 6 6 7 7 8 8 8 7 7 7 6 5 5 6 6 7 7 6 5 5 5 5 5 4
12 12 12 12 12 11 11 13 13 12 12 11 13 11 11 10 9 10 10 11 12 11 12 12 11 12 13 12 10 11 10 9 9 7 8 7 7 6 6 6 6 7 8 9 9 8 8 8 8 8 7 5 5 6 6 5 4 4 4 5 4 5
11 11 12 11 12 12 12 11 11 11 11 12 10 10 10 10 9 10 10 10 12 12 13 13 12 13 13 12 10 11 10 9 8 8 7 8 9 7 7 7 7 7 8 7 8 8 8 8 8 8 8 7 5 5 5 5 5 4 4 4 4 4
15 13 12 13 12 12 11 11 11 10 10 10 9 9 10 10 10 10 11 11 12 12 13 13 12 12 12 11 10 9 8 9 9 9 9 8 8 8 8 7 7 6 7 7 7 8 9 8 7 7 7 6 6 6 6 6 5 4 4 4 4 4
11 13 14 12 12 10 9 10 10 11 11 11 9 9 10 9 10 11 11 11 11 12 12 11 10 10 10 8 7 8 8 8 8 8 7 7 8 9 9 9 9 7 7 7 7 7 7 7 7 7 7 6 6 7 6 6 6 5 4 4 4 4
13 11 11 11 10 12 12 11 11 10 10 10 10 9 11 10 11 12 12 11 12 12 11 10 9 8 8 8 8 9 9 8 8 7 7 7 7 7 7 7 7 8 7 7 7 7 7 7 7 7 7 7 6 6 6 7 7 6 6 4 4 4
10 12 12 11 14 13 13 13 13 14 14 12 11 11 10 11 11 12 12 13 13 10 9 10 8 9 9 9 10 9 8 8 8 8 8 8 7 6 6 6 6 7 8 9 7 7 6 6 5 7 12 10 8 7 6 6 6 6 5 5 5 5
10 10 13 15 16 16 15 13 12 11 12 12 13 13 11 11 11 12 12 12 9 9 9 9 9 9 10 10 9 7 9 9 8 7 7 7 6 7 7 6 8 7 7 8 8 8 7 6 5 11 13 14 13 8 7 7 6 5 5 5 7 7
13 14 16 16 14 14 13 13 13 13 15 14 14 13 11 12 12 12 12 11 10 10 10 10 10 11 11 10 9 9 8 8 8 8 8 7 7 6 5 7 7 6 6 6 6 7 7 6 8 13 14 15 15 12 8 5 5 5 6 6 7 6
15 16 14 13 15 16 16 14 12 15 15 13 11 9 11 12 12 12 11 11 11 11 11 10 11 11 10 10 9 8 8 9 9 9 9 10 8 6 7 8 8 7 6 7 8 8 7 6 10 14 15 15 16 16 10 5 5 6 6 6 6 6
11 12 13 13 13 13 12 13 14 11 8 8 8 11 11 12 11 11 11 11 12 11 11 11 10 10 10 9 9 9 9 10 11 10 8 7 7 9 8 7 8 7 8 8 9 8 7 7 9 15 16 16 17 16 12 5 6 5 5 6 6 5
10 9 9 10 10 9 9 10 10 9 10 11 12 11 12 12 12 12 11 12 12 11 10 11 11 11 10 10 10 9 10 11 9 10 9 9 10 11 11 10 10 9 8 8 7 7 7 7 12 15 16 17 17 17 12 6 6 6 5 6 6 7
13 13 13 10 10 10 11 12 10 11 12 11 13 13 13 13 12 12 11 12 11 12 11 12 11 11 10 10 10 11 11 11 12 12 10 8 7 6 5 5 5 8 8 7 7 7 9 8 14 16 17 18 18 18 9 7 7 7 6 7 8 8
11 10 6 8 10 11 11 9 10 10 10 11 11 11 11 11 12 13 14 13 12 12 11 12 12 11 11 11 11 12 12 12 12 10 8 9 9 9 9 10 9 7 8 9 9 10 10 8 13 17 18 18 19 14 7 7 7 7 8 8 8 7
4 6 8 8 9 9 8 10 11 11 11 11 10 11 11 12 14 14 13 13 12 12 12 12 12 12 12 11 13 14 12 10 7 8 8 11 11 11 11 9 7 7 8 10 11 12 11 10 11 17 18 18 19 14 8 7 7 8 8 7 8 7
8 8 8 9 10 9 10 11 12 12 12 11 11 11 12 14 14 13 12 12 11 10 11 10 11 12 12 13 12 11 11 11 11 8 7 9 8 9 8 8 8 8 7 9 10 8 10 9 8 15 17 19 19 14 7 8 7 8 9 8 8 7
8 7 9 10 10 9 12 11 12 12 12 11 10 11 13 14 12 9 8 8 8 9 9 10 11 11 12 12 10 9 10 8 8 9 9 8 7 7 7 7 8 10 10 8 8 8 10 9 7 8 17 18 19 20 9 7 8 11 11 9 8 7
6 7 7 6 8 9 9 10 10 10 8 9 9 12 13 8 7 8 9 9 9 9 10 9 11 13 12 11 11 10 8 8 8 7 7 8 6 4 4 6 7 8 8 6 6 7 8 8 9 9 15 17 18 20 16 9 11 10 8 8 8 8
6 7 6 5 9 9 9 9 10 8 8 8 11 12 6 7 8 8 8 9 10 10 10 10 10 10 10 8 8 8 8 7 7 7 7 6 6 7 7 5 5 7 7 5 6 7 9 7 9 7 12 16 18 19 22 11 11 9 8 8 8 8
6 6 6 5 6 7 8 10 10 8 8 11 11 5 6 6 7 8 8 8 9 9 10 9 10 10 8 8 9 10 9 7 8 7 7 8 7 8 8 8 7 6 7 6 7 7 8 7 8 13 10 15 18 20 21 21 11 15 10 10 11 11
5 5 3 3 4 5 7 10 9 8 9 9 4 5 5 6 6 7 8 8 8 8 8 8 9 8 7 9 8 9 9 8 8 7 8 8 8 8 8 8 7 7 8 10 10 8 8 7 7 10 15 13 18 19 20 21 22 19 12 10 10 8
9 6 4 2 4 5 5 6 9 8 8 4 6 6 8 7 7 8 7 8 8 8 7 7 7 8 7 8 9 9 8 7 7 8 6 7 7 8 9 9 7 9 10 9 11 11 8 7 7 8 11 16 16 18 18 19 22 24 23 12 9 9
7 8 7 3 2 4 4 5 8 10 5 5 6 7 7 8 8 7 8 7 7 7 7 7 6 6 6 7 7 9 9 10 9 9 7 7 8 8 9 9 7 8 8 10 11 11 10 6 6 7 5 7 9 11 16 19 19 20 22 22 12 13
8 8 8 7 2 4 4 5 3 4 5 6 6 6 7 8 8 7 6 7 6 5 6 8 7 6 6 6 6 6 7 7 7 8 8 8 9 9 9 9 9 9 9 11 12 11 7 5 6 6 5 6 7 9 8 8 10 14 16 14 13 15
7 7 6 7 4 4 4 4 4 3 5 5 5 6 7 7 7 7 7 7 6 6 7 7 8 9 7 7 8 8 6 6 8 9 11 12 12 11 10 9 10 11 11 11 10 8 6 8 7 7 7 7 7 6 7 8 9 10 9 11 10 8
6 5 5 4 3 4 4 4 3 3 4 5 5 6 7 6 5 5 5 5 6 6 6 7 7 7 7 7 7 7 6 8 9 10 8 5 4 8 10 9 9 9 8 7 7 7 9 8 9 9 8 10 12 12 9 9 10 10 10 12 13 7
4 4 4 3 3 4 4 4 3 3 3 4 4 5 7 6 6 5 5 5 5 5 6 6 5 4 6 6 6 6 3 3 3 5 5 6 4 9 11 8 8 5 6 7 8 7 10 11 6 5 14 17 18 20 21 17 16 14 12 12 17 11
4 4 3 2 3 4 4 4 4 3 3 4 4 5 6 6 6 5 5 5 4 5 4 4 5 4 5 4 5 5 6 6 4 6 9 8 7 8 10 13 14 12 10 9 7 7 14 15 13 12 12 14 16 18 19 19 18 18 17 17 11 10
3 4 4 3 4 4 4 4 3 3 3 3 5 5 6 6 7 6 5 5 3 4 4 4 4 4 5 3 3 5 5 5 6 6 5 8 10 11 12 12 13 14 14 15 12 8 5 10 14 15 15 15 15 16 16 17 18 18 18 17 17 10
4 3 3 3 4 4 4 4 2 1 1 1 2 4 5 5 5 5 4 5 5 5 5 5 5 5 5 5 5 4 4 6 5 6 6 3 5 11 14 14 15 16 16 17 18 18 13 10 11 15 15 15 16 16 15 15 17 17 18 18 13 9
4 4 4 4 4 4 4 4 3 4 2 0 2 3 4 4 4 4 5 5 6 6 5 5 5 5 5 5 5 5 5 5 6 6 5 5 5 5 5 10 14 16 16 17 17 16 17 17 16 15 15 14 14 15 15 14 11 16 18 16 10 9
6 4 4 5 5 5 5 4 4 4 3 0 3 4 4 4 4 5 5 7 6 5 5 6 4 6 5 5 6 6 6 6 6 6 6 7 7 7 8 5 5 8 13 12 11 14 16 16 16 16 16 15 15 15 15 15 9 8 8 10 9 8
7 5 4 5 5 6 5 4 4 5 4 1 3 4 4 4 4 4 4 4 4 5 4 5 6 6 6 6 7 6 6 5 5 6 6 5 4 6 6 5 4 4 5 9 10 11 13 14 15 13 13 16 15 15 14 9 7 7 7 7 7 5
Wind_Direction
189 186 185 184 185 186 183 175 171 174 178 178 177 175 175 171 171 166 165 168 167 170 170 166 161 159 154 153 156 157 156 154 154 160 158 144 146 142 143 143 148 153 158 154 132 121 116 115 118 120 117 119 115 108 112 110 110 108 105 109 113 126
187 184 182 183 184 183 181 173 172 178 176 172 176 173 166 166 169 168 168 169 163 163 158 164 162 158 158 162 164 167 168 163 159 157 161 163 152 151 148 151 157 162 160 154 130 122 120 123 126 130 127 119 117 125 121 126 116 110 114 108 101 116
183 186 187 184 181 181 175 176 181 178 171 178 177 174 174 173 172 169 171 165 167 163 171 168 165 164 161 165 175 170 169 165 163 169 163 149 162 157 157 161 164 167 161 142 135 133 136 135 136 136 132 123 124 122 126 125 120 120 121 116 108 118
180 180 179 175 177 184 182 180 174 178 183 181 175 176 179 176 175 175 171 171 166 172 173 172 165 161 163 171 175 177 173 169 170 164 158 168 166 163 161 161 162 162 153 140 137 137 135 135 135 140 131 132 129 130 133 132 130 130 136 128 140 159
180 181 182 183 186 186 182 181 186 184 182 180 184 181 187 181 177 175 171 171 172 175 172 168 170 166 172 175 179 180 177 173 168 167 167 167 164 163 163 163 161 160 151 141 141 136 133 133 134 140 139 141 143 142 143 144 141 144 151 155 167 169
173 178 186 186 189 188 188 187 185 184 187 188 183 190 183 179 178 174 172 173 173 171 169 176 171 172 177 181 183 182 179 171 169 169 168 164 157 159 159 164 163 159 155 144 142 139 137 138 141 146 152 151 149 147 144 146 144 145 159 165 168 167
183 191 189 191 192 190 187 189 191 187 190 187 190 191 181 177 175 176 175 172 172 175 176 178 177 180 183 184 183 184 174 171 167 168 165 155 158 158 158 168 171 161 158 154 151 148 149 146 144 148 134 139 145 147 146 144 140 153 167 173 174 171
187 192 194 192 194 192 190 193 191 190 191 194 188 183 178 180 172 176 173 176 176 179 183 182 182 187 186 184 184 180 174 169 168 166 165 165 161 160 171 170 173 173 162 149 148 149 150 140 152 156 155 151 148 144 141 141 150 164 172 177 177 169
200 197 193 195 192 191 189 188 190 191 191 191 189 187 179 176 173 175 176 179 182 181 188 186 186 185 186 186 183 173 171 172 171 169 168 167 164 168 171 174 173 175 156 148 146 153 138 153 162 159 153 148 150 153 146 153 161 172 176 183 178 181
194 197 196 191 193 188 185 188 187 187 189 191 186 183 178 176 174 176 181 181 185 187 188 187 182 185 186 183 177 174 172 171 170 170 161 161 170 176 179 176 175 166 154 151 150 153 158 167 167 158 152 152 157 148 160 166 173 177 186 185 192 192
199 195 194 193 182 187 187 183 185 184 187 188 184 180 184 174 176 182 181 181 188 191 185 178 179 179 179 178 177 175 175 173 169 164 164 172 175 181 183 177 167 155 150 149 156 159 168 174 177 171 164 159 165 170 173 178 181 182 186 196 206 213
192 193 189 187 190 188 188 188 189 188 185 183 178 180 184 172 183 179 184 189 193 185 177 176 175 177 176 179 183 179 171 171 170 169 169 176 179 177 176 173 170 164 158 159 163 169 175 183 182 177 173 171 170 176 181 182 187 185 189 197 212 224
191 186 191 195 192 192 190 190 187 183 183 183 184 185 179 174 179 186 187 193 187 177 170 172 180 175 183 186 177 172 172 173 173 171 171 174 177 177 174 174 174 176 170 169 169 177 186 187 186 183 183 186 183 177 182 187 189 187 192 204 210 220
190 193 198 197 193 188 187 187 185 183 193 189 185 179 168 174 182 186 189 186 180 179 178 181 179 182 186 179 181 177 173 172 172 174 176 175 175 174 171 188 189 176 171 169 174 189 193 195 191 190 193 195 195 188 188 186 186 188 201 207 216 222
196 198 198 193 193 192 193 184 180 194 192 184 178 159 171 181 183 184 186 183 182 184 182 180 182 185 183 184 179 174 173 175 176 178 179 182 175 163 182 192 180 186 178 177 184 197 199 203 198 197 199 202 202 199 184 187 184 191 206 210 216 218
201 201 199 198 195 193 184 183 189 186 171 162 153 168 172 175 184 186 188 184 188 185 181 180 181 185 185 181 179 175 178 180 188 186 179 168 169 182 187 186 188 183 185 188 195 201 204 205 202 202 204 206 207 205 186 179 187 199 205 213 216 221
194 191 192 196 186 177 173 185 183 161 155 159 163 171 174 183 184 188 188 191 189 184 179 178 183 186 183 182 179 179 185 188 187 183 182 180 185 185 188 188 187 193 189 193 196 204 210 212 206 206 207 209 210 209 192 169 190 198 210 215 222 222
189 190 197 179 168 177 182 187 172 168 175 170 172 175 180 180 185 189 188 192 189 186 183 182 184 184 182 180 180 184 190 191 192 188 182 181 186 189 186 196 195 194 192 193 197 206 220 218 208 208 209 209 210 208 198 173 193 198 207 218 222 226
188 190 162 164 177 176 182 167 166 169 164 170 178 174 177 179 187 191 193 195 187 186 184 183 182 184 183 182 184 190 193 193 194 192 178 181 187 186 193 198 197 189 190 197 202 209 222 219 211 209 210 210 209 206 199 182 192 205 210 221 223 226
143 143 159 163 170 171 157 158 162 164 167 175 172 173 178 184 196 195 193 191 186 187 182 182 183 184 185 183 191 195 198 196 194 192 182 186 187 195 201 193 189 195 199 203 211 211 214 221 210 211 212 210 208 206 198 191 195 210 216 224 228 221
155 151 147 154 165 161 154 154 157 162 173 176 177 179 184 196 199 191 190 190 185 182 180 181 182 186 187 192 196 193 193 193 195 191 185 200 199 204 190 187 196 201 204 212 217 212 216 227 213 213 215 212 210 208 193 191 197 212 222 221 227 225
119 136 154 166 168 152 153 155 161 172 174 177 173 182 197 203 195 184 183 177 174 174 179 182 185 189 189 194 191 190 196 189 183 190 192 202 205 203 194 195 203 205 212 205 208 216 219 224 224 215 220 218 214 211 195 186 194 218 220 220 224 222
138 152 161 156 146 149 149 153 157 171 172 166 177 200 204 185 163 172 175 171 172 177 181 184 187 190 194 191 191 189 186 185 188 178 183 193 194 194 201 201 211 219 225 204 209 216 228 222 225 223 220 225 221 217 206 196 210 217 214 220 223 225
108 106 99 118 138 141 145 148 160 163 162 170 197 206 170 159 165 160 163 170 177 181 181 185 189 190 190 183 169 172 181 182 174 178 177 171 179 199 213 212 216 224 232 222 213 220 228 224 222 224 226 227 228 225 220 205 217 204 203 219 227 227
111 114 122 123 131 141 149 152 158 164 165 189 204 160 148 153 154 161 167 171 173 179 182 184 183 183 178 175 176 177 184 174 174 175 169 174 185 199 211 217 217 225 240 243 236 230 230 226 227 226 223 228 230 232 230 226 212 210 208 212 229 225
87 88 75 96 126 140 151 154 157 163 177 201 137 137 136 146 153 154 161 170 176 176 181 182 182 180 174 173 171 177 176 177 179 176 182 182 186 195 210 222 210 218 235 238 243 237 229 222 218 230 229 226 231 236 236 237 233 222 211 212 231 228
134 124 110 121 144 149 151 152 150 164 183 181 140 146 152 149 150 154 166 172 176 179 180 174 177 178 177 174 169 175 181 177 169 180 187 179 194 200 211 220 206 216 229 237 242 246 236 213 214 224 231 233 235 237 241 243 240 237 231 223 225 217
119 125 127 110 121 131 133 143 150 163 189 164 150 149 143 146 146 160 172 175 177 178 164 168 176 176 176 175 181 186 185 178 181 188 183 186 202 205 213 221 206 222 227 236 244 245 241 211 211 222 213 225 243 248 245 244 249 247 243 242 235 218
122 130 134 137 145 131 129 130 112 137 143 145 147 142 144 149 158 164 168 174 171 158 164 171 175 174 174 180 181 185 180 176 179 186 186 191 199 207 214 217 212 221 224 232 241 246 246 227 220 213 204 200 215 230 239 253 259 256 252 247 245 246
127 133 135 139 153 121 116 111 103 108 118 129 133 138 139 149 162 166 174 170 164 171 172 180 170 172 181 186 182 183 187 190 184 189 197 196 199 200 215 211 217 221 222 230 239 248 255 246 229 218 203 209 208 220 219 226 231 231 229 238 236 228
129 139 127 119 116 111 103 102 88 86 116 129 135 138 140 148 154 148 152 157 159 173 174 177 177 185 183 185 196 210 197 189 195 204 222 230 192 207 207 211 224 226 229 228 232 225 245 249 241 232 196 207 204 206 211 219 221 222 225 229 227 221
106 117 121 94 96 114 115 107 94 74 91 118 135 137 138 142 142 145 156 159 167 161 168 180 180 177 178 182 194 199 260 311 201 219 215 235 212 215 228 215 225 214 197 220 235 200 223 242 246 192 207 216 219 224 224 223 222 221 223 223 224 217
104 109 106 114 106 126 128 128 129 113 115 125 140 134 133 139 142 150 154 159 177 167 171 166 174 173 177 178 176 181 192 241 281 244 233 222 212 221 231 236 241 234 207 197 242 238 239 253 260 252 242 233 230 231 233 235 234 232 229 220 211 223
118 130 170 165 129 128 129 137 156 153 156 147 149 136 139 147 149 167 178 164 154 148 155 162 159 158 168 183 168 177 188 204 234 279 258 239 237 232 231 236 239 241 244 235 231 221 244 253 254 253 252 247 243 244 243 243 239 235 228 222 208 213
152 154 151 135 125 115 121 114 69 36 77 115 130 135 135 151 146 150 149 155 154 150 153 158 164 172 170 182 181 190 181 193 214 238 268 294 259 245 245 245 244 245 248 249 251 249 236 215 223 241 248 250 251 248 245 243 239 232 224 214 214 214
126 135 130 123 126 115 103 81 28 8 355 88 132 129 131 138 140 143 150 157 163 151 161 164 173 167 181 173 175 182 180 205 199 221 227 247 290 311 277 250 243 243 246 249 249 249 254 252 240 233 236 242 247 245 240 237 239 237 230 222 219 218
107 93 96 110 102 91 84 53 0 346 333 29 132 122 116 125 122 112 116 131 139 156 165 169 164 170 169 170 181 185 193 202 205 199 203 212 219 231 239 244 257 253 242 243 248 251 252 252 254 245 234 236 240 239 236 236 238 233 236 236 232 222
81 71 70 91 98 95 86 36 353 349 346 28 115 112 118 119 123 124 129 137 140 145 156 168 174 175 177 185 194 191 195 189 183 197 212 214 221 227 243 264 254 257 300 278 267 266 251 252 258 264 257 242 240 242 237 231 230 226 224 227 240 248